クリステンセン彗星

C/2005 B1 ( Christensen )

English version
Home page
Total 6,336 html files since Dec. 4, 1995
Updated on April 3, 2008

---------------------------------------------------------------------

・ プロフィール

符号 C/2004 FS101 = C/2005 B1
発見日 2004年3月23日、2005年1月16日
発見光度 20.4等、17.4等
発見者 Lincoln Laboratory Near-Earth Asteroid Research project, E. J. Christensen (Catalina Sky Survey)

・ 写真集

・ 軌道要素

Epoch 2006 Mar. 6.0 TT = JDT 2453800.5
T 2006 Feb. 23.56998 TT                                 MPC
q   3.2049253            (2000.0)            P               Q
z  -0.0001066      Peri.  103.18330     +0.20808725     +0.94070042
 +/-0.0000027      Node   195.55649     -0.29247966     +0.32122880
e   1.0003416      Incl.   92.55163     +0.93335703     -0.10906316
>From 432 observations 2004 Mar. 18-2005 May 21, mean residual 0".58.

・ 星図

・ 光度変化

        m1 = 9.0 + 5 logΔ + 8.0 log r(t + 50)

---------------------------------------------------------------------

軌道要素はM.P.E.C. 2005-K26に掲載されたものです。
星図は StellaNavigator Ver.2.0 for Windows (アストロアーツ 編著 / アスキー出版局刊) で作成したものです。
光度グラフはComet for Windowsで作成したものです。

---------------------------------------------------------------------

Copyright(C) 1995-2008 Seiichi Yoshida (comet@aerith.net). All rights reserved.